526  
AXUS43 KGID 140102  
MISGRI  
 
GID CWA HOURLY WEATHER ROUNDUP  
NATIONAL WEATHER SERVICE HASTINGS NE  
700 PM CST SAT FEB 13 2016  
 
NOTE: "FAIR" INDICATES FEW OR NO CLOUDS BELOW 12,000 FEET WITH NO  
SIGNIFICANT WEATHER AND/OR OBSTRUCTIONS TO VISIBILITY.  
   
..SOUTH CENTRAL NEBRASKA
 
 
 
CITY SKY/WX TMP DP RH WIND PRES REMARKS  
GRAND ISLAND CLOUDY 20 10 65 SE14 30.13F WCI 7  
HASTINGS CLOUDY 21 9 59 SE14 30.10F WCI 8  
KEARNEY CLOUDY 21 10 63 SE13 30.09S WCI 9  
ORD CLOUDY 20 9 62 S13G22 30.06F WCI 7  
YORK CLOUDY 21 9 58 SE13 30.18S WCI 9  
AURORA CLOUDY 21 10 62 SE10 30.15F WCI 10  
LEXINGTON CLOUDY 25 16 69 SE14 30.03F WCI 13  
HOLDREGE CLOUDY 23 14 67 SE9 30.07R WCI 13  
HEBRON CLOUDY 23 7 49 SE12 30.18F WCI 12  
   
..NEBRASKA PANHANDLE
 
 
 
CITY SKY/WX TMP DP RH WIND PRES REMARKS  
CHADRON CLEAR 43 33 68 W29G47 29.83R  
ALLIANCE CLEAR 36 31 82 SE8 29.80R WCI 30  
SCOTTSBLUFF CLEAR 54 20 26 W28G39 29.83R  
SIDNEY CLOUDY 36 33 89 SE3 29.88R  
   
..WESTERN AND NORTH CENTRAL NEBRASKA
 
 
 
CITY SKY/WX TMP DP RH WIND PRES REMARKS  
VALENTINE CLOUDY 27 23 85 S15G26 29.85F WCI 15  
AINSWORTH CLOUDY 25 21 85 S22G28 29.90F WCI 10  
ONEILL CLOUDY 20 10 65 S23 30.04F WCI 4  
BROKEN BOW CLOUDY 22 15 75 S18G24 30.00F WCI 7  
IMPERIAL CLOUDY 30 28 92 S13 29.93F WCI 20  
NORTH PLATTE CLOUDY 27 23 85 S15 29.97S WCI 15  
MCCOOK CLOUDY 30 24 78 SE6 30.01F WCI 24  
   
..EASTERN NEBRASKA
 
 
 
CITY SKY/WX TMP DP RH WIND PRES REMARKS  
NORFOLK CLOUDY 17 7 64 SE16 30.17R WCI 2  
SO SIOUX CITY CLOUDY 16 7 67 SE20 30.23F WCI -1  
TEKAMAH CLOUDY 17 6 62 SE18 30.27F WCI 1  
COLUMBUS CLOUDY 18 1 49 SE10 30.20S WCI 6  
ALBION CLOUDY 19 10 66 S16G23 30.12F WCI 5  
OMAHA EPPLEY CLOUDY 19 3 49 SE16 30.28F WCI 4  
OFFUTT AFB CLOUDY 19 2 47 E15 30.27F WCI 5  
MILLARD CLOUDY 19 4 51 SE12 30.28F WCI 7  
LINCOLN CLOUDY 20 5 52 SE14 30.26F WCI 7  
NEBRASKA CITY CLOUDY 19 2 47 SE14 30.26F WCI 6  
BEATRICE CLOUDY 22 4 46 SE10 30.23F WCI 11  
FALLS CITY CLOUDY 20 3 48 SE10 30.28F WCI 9  
   
..NORTHERN KANSAS
 
 
 
CITY SKY/WX TMP DP RH WIND PRES REMARKS  
GOODLAND CLOUDY 29 27 92 S8 29.97S FOG WCI 21  
HILL CITY CLOUDY 31 20 63 SE8 30.04F WCI 23  
NORTON CLEAR 28 18 64 SE6 30.04 WCI 22  
PHILLIPSBURG CLEAR 30 16 55 E10 30.08F WCI 21  
SMITH CENTER CLEAR 27 14 59 SE13 30.10F WCI 16  
BELOIT CLEAR 28 9 43 E9 30.15S WCI 20  
HAYS CLOUDY 32 12 43 E10 30.08F WCI 24  
RUSSELL CLOUDY 31 16 54 E9 30.09S WCI 23  
CONCORDIA CLOUDY 23 5 46 E13 30.17F WCI 11  
SALINA CLOUDY 33 6 32 E10 30.17F WCI 25  
TOPEKA CLOUDY 24 2 38 SE10 30.29R WCI 14  
 
CLICK HERE TO GO TO PREVIOUS BULLETINS.

The Nexlab NE Page
The Nexlab KS Page Main Text Page